Regional Weather Roundup
Issued by NWS

Home | Current Version | Previous Version | Text Only | Print | Product List | Glossary Off
Versions: 1 2 3 4 5 6 7 8 9 10 11 12 13 14 15 16 17 18 19 20 21 22 23 24 25 26 27 28 29 30 31 32 33 34 35 36 37 38 39 40 41 42 43 44 45 46 47 48 49 50

000
ASUS43 KMKX 202221
RWRWI

WISCONSIN REGIONAL WEATHER ROUNDUP
NATIONAL WEATHER SERVICE MILWAUKEE/SULLIVAN WI
400 PM CST FRI JAN 20 2017

NOTE: "FAIR" INDICATES FEW OR NO CLOUDS BELOW 12,000 FEET WITH NO
SIGNIFICANT WEATHER AND/OR OBSTRUCTIONS TO VISIBILITY.

WIZ001-002-006>008-014>016-023>028-202300-
NORTHWEST WISCONSIN

CITY           SKY/WX    TMP DP  RH WIND       PRES   REMARKS
SUPERIOR ARPT  LGT RAIN  35  35 100 E6        29.60S WCI  30
ASHLAND        LGT RAIN  34  33  96 CALM      29.63S VSB 1/2
HAYWARD        CLOUDY    37  34  89 E5        29.58F WCI  33
SIREN          DRIZZLE   36  35  96 SE3       29.58S
CUMBERLAND     CLOUDY    34  32  93 SE8       29.57S FOG     WCI  27
RICE LAKE      CLOUDY    36  35  98 SE6       29.59S FOG     WCI  31
CHETEK         CLOUDY    35  35  99 SE6       29.59R FOG     WCI  30
LADYSMITH      CLOUDY    37  36  97 SE6       29.60F FOG     WCI  32
EAU CLAIRE     CLOUDY    36  35  96 SE10      29.60R WCI  28
MENOMONIE        N/A    N/A N/A N/A MISG        N/A
NEW RICHMOND   CLOUDY    35  35 100 E5        29.58R FOG     WCI  31
OSCEOLA        CLOUDY    36  36 100 E9        29.60R FOG     WCI  29
$$

WIZ003>005-009-010-017-018-202300-
NORTH CENTRAL WISCONSIN

CITY           SKY/WX    TMP DP  RH WIND       PRES   REMARKS
MANITOWISH WTR LGT RAIN  34  34 100 E3        29.62S
ARBOR VITAE    LGT SNOW  37  35  95 CALM      29.62S
WOODRUFF       LGT SNOW  37  35  95 CALM      29.62S
RHINELANDER    LGT RAIN  34  34 100 E8        29.61F FOG     WCI  27
EAGLE RIVER    RAIN      34  34 100 CALM      29.62S
LAND O LAKES   MIX PCPN  35  35  98 CALM      29.64S
PHILLIPS       LGT RAIN  35  35  99 E3        29.58F
TOMAHAWK       LGT RAIN  33  32  96 E5        29.61F WCI  29
MEDFORD        CLOUDY    34  33  97 SE5       29.60R FOG     WCI  30
MERRILL        CLOUDY    34  34 100 SE3         N/A
$$

WIZ029-030-035-036-043>047-202300-
CENTRAL WISCONSIN

CITY           SKY/WX    TMP DP  RH WIND       PRES   REMARKS
WAUSAU         CLOUDY    34  33  96 SE7       29.61F WCI  28
MOSINEE        LGT RAIN  34  34 100 E6        29.62F FOG     WCI  29
MARSHFIELD     FOG       34  33  96 SE9       29.61R VSB 1   WCI  27
STEVENS POINT  CLOUDY    32  32 100 E6        29.64R FOG     WCI  27
WAUPACA        CLOUDY    38  35  90 CALM      29.64S FOG
WAUTOMA        CLOUDY    36  36 100 E3        29.64R FOG
WISC RAPIDS    CLOUDY    35  35 100 SE6       29.63S FOG     WCI  30
CAMP DOUGLAS   CLOUDY    36  34  93 E7        29.62R FOG     WCI  30
$$

WIZ011>013-019>022-031-037>040-048>050-202300-
NORTHEAST WISCONSIN

CITY           SKY/WX    TMP DP  RH WIND       PRES   REMARKS
ANTIGO         LGT RAIN  33  33 100 E5        29.62F WCI  28
SHAWANO        CLOUDY    36  34  94 NE5       29.65S WCI  32
OCONTO         CLOUDY    33  33  98 N7        29.64F WCI  27
STURGEON BAY   LGT RAIN  33  33 100 N8        29.65S FOG     WCI  26
GREEN BAY      CLOUDY    35  35 100 E6        29.65S FOG     WCI  30
MANITOWOC      CLOUDY    37  35  92 NE3       29.65F FOG
APPLETON       FOG       36  36 100 NE7       29.61F VSB 1/2 WCI  30
CLINTONVILLE   CLOUDY    34  34 100 CALM      29.65S FOG
OSHKOSH        CLOUDY    36  34  92 E3        29.64R FOG
$$

WIZ032>034-041-042-053>061-202300-
SOUTHWEST WISCONSIN

CITY           SKY/WX    TMP DP  RH WIND       PRES   REMARKS
LA CROSSE      CLOUDY    40  37  89 E6        29.60R FOG
SPARTA         CLOUDY    35  35 100 E3        29.62R FOG
VIROQUA        CLOUDY    35  35 100 SE8       29.59R VSB 1/2 WCI  29
BOSCOBEL       FOG       38  37  97 CALM      29.62R VSB 3/4
PRAIRIE DU CHI CLOUDY    37  36  97 E3        29.60R FOG
PLATTEVILLE    CLOUDY    37  37 100 E5        29.60R VSB<1/4 WCI  34
$$

WIZ056-057-062-063-064-067-068-202300-
SOUTH CENTRAL WISCONSIN

CITY           SKY/WX    TMP DP  RH WIND       PRES   REMARKS
REEDSBURG      CLOUDY    36  36 100 E3        29.61R FOG
BARABOO/DELLS  FOG       35  35  98 E5        29.61R VSB 1   WCI  31
LONE ROCK      FOG       37  36  96 E6        29.63R VSB 1/2 WCI  32
MINERAL POINT  FOG       37  37 100 E3        29.60R VSB<1/4
MADISON        DRZL/FOG  37  37 100 E5        29.63R VSB 1/4 WCI  33
MIDDLETON      CLOUDY    38  38 100 SE6       29.62R VSB 1/2 WCI  33
WATERTOWN      CLOUDY    37  37 100 E7        29.62R FOG     WCI  31
MONROE         SNOW      36  36 100 E3        29.61R VSB<1/4
JANESVILLE     FOG       39  39 100 SE5       29.63R VSB 3/4
$$

WIZ051-052-058>065-066-070>072-202300-
SOUTHEAST WISCONSIN

CITY           SKY/WX    TMP DP  RH WIND       PRES   REMARKS
MILWAUKEE      FOG       38  36  92 SE8       29.65R VSB 1/4 WCI  32
WAUKESHA       FOG       36  36 100 E7        29.64R VSB 0   WCI  30
MILWAUKEE/TIMM FOG       37  34  87 E5        29.65R VSB 1/2 WCI  34
RACINE         FOG       37  36  96 SE7       29.66R VSB 1/4 WCI  32
KENOSHA        FOG       38  37  97 SE7       29.64R VSB<1/4 WCI  33
FOND DU LAC    CLOUDY    38  33  82 E5        29.63R WCI  34
SHEBOYGAN      CLOUDY    36  34  92 NE5       29.64F FOG     WCI  32
WEST BEND      CLOUDY    36  36 100 SE6       29.64R FOG     WCI  31
JUNEAU         CLOUDY    36  35  97 E8        29.64R FOG     WCI  29
$$

LSZ147-162-202300-
LAKE SUPERIOR

STATION/POSITION TIME  TEMP    WIND        PRES    WAVE
                       AIR SEA DIR/SP/G            HT/PER
                 (UTC) (F)     (DEG/KT/KT) (MB)    (FT/S)
DEVILS ISLAND    2200   34      70/  7/  7 1004.3R
PORT WING        2130   36      40/  2/  3 1003.4S
SAXON HARBOR     2130   34      CALM  /  1 1003.4S
$$

LMZ867-665-643>646-202300-
LAKE MICHIGAN

STATION/POSITION TIME  TEMP    WIND        PRES    WAVE
                       AIR SEA DIR/SP/G            HT/PER
                 (UTC) (F)     (DEG/KT/KT) (MB)    (FT/S)
NORTHPORT PIER   2140   32     330/  6/  7 1005.1S
SISTER BAY       2120   32     360/  9/  9   N/A
KEWAUNEE LAKESHO 2154   35      50/  4/  6 1004.2R
SHEBOYGAN LAKESH 2200   34     360/  5/  5 1004.3R
PORT WASHINGTON  2130   36      70/  4/  5 1005.1F
KENOSHA   LAKESH 2200   35     140/  2/  4 1004.4
$$

TC  - TEMPERATURE IN CELSIUS
VSB - VISIBILITY IN STATUTE MILES
WCI - WIND CHILL INDEX
HX  - HEAT INDEX




USA.gov is the U.S. government's official web portal to all federal, state and local government web resources and services.